« Back
NWS Peachtree City, Ga » Text Product » GA Regional Weather Roundup


Printer-friendly Version
Current Version              Previous Versions:   1  2  3  4  5  6  7  8  9  

Regional Weather Roundup

530
ASUS42 KFFC 310503
RWRGA
WEATHER ROUNDUP FOR GEORGIA
NATIONAL WEATHER SERVICE PEACHTREE CITY GA
100 AM EDT WED AUG 31 2016

NOTE: "FAIR" INDICATES FEW OR NO CLOUDS BELOW 12,000 FEET WITH NO
SIGNIFICANT WEATHER AND/OR OBSTRUCTIONS TO VISIBILITY.

* = USE WITH CAUTION. THE STATIONS MARKED WITH AN ASTERISK MAY NOT
REPORT WEATHER SUCH AS PRECIPITATION, FOG, OR THUNDER AND ARE NOT
QUALITY CONTROLLED BY NWS.

THE REMARK "TC" DENOTES TEMPERATURE READING IN DEGREES CELSIUS.

GAZ001>058-310600-
NORTH GEORGIA

CITY           SKY/WX    TMP DP  RH WIND       PRES   REMARKS
ATLANTA        CLEAR     78  69  73 E5        30.03S
ATHENS         PTCLDY    73  71  93 CALM      30.03F
CHAMBLEE       CLEAR     75  66  73 CALM      30.04R
PEACHTREE CITY CLEAR     71  70  96 CALM      30.03S
ROME           CLEAR     73  68  84 NE3       30.02S
WEST ATLANTA   CLEAR     73  68  84 CALM      30.03R
GAINESVILLE    CLEAR     75  64  68 NE5       30.07F
CARTERSVILLE   CLEAR     74  67  78 CALM      30.03S


CITY           SKY/WX    TMP DP  RH WIND       PRES   REMARKS
DALTON*        MOCLDY    73  70  88 CALM      30.03S
MARIETTA       CLEAR     76  67  73 CALM      30.04R
CANTON*        CLEAR    N/A N/A N/A CALM      30.06S
BLAIRSVILLE*     N/A    N/A N/A N/A MISG      30.11S
$$

GAZ059>098-102>109-310600-
CENTRAL GEORGIA

CITY           SKY/WX    TMP DP  RH WIND       PRES   REMARKS
AUGUSTA-BUSH   CLEAR     73  73 100 CALM      30.00S FOG
AUGUSTA-DANIEL CLEAR     78  71  79 SE3       30.02S
COLUMBUS       CLEAR     78  68  71 E8        29.97F
MACON          CLEAR     74  70  87 E3        29.99F
ROBINS AFB     CLEAR     76  71  85 VRB5      29.98F


CITY           SKY/WX    TMP DP  RH WIND       PRES   REMARKS
LAGRANGE*      CLEAR     78  74  88 E3        30.00F
MILLEDGEVILLE* CLEAR     77  73  88 CALM      30.01S
$$

GAZ099>101-110>166-310600-
SOUTH GEORGIA

CITY           SKY/WX    TMP DP  RH WIND       PRES   REMARKS
SAVANNAH       MOCLDY    78  72  81 SE9       29.99S
VALDOSTA       CLEAR     76  73  91 E5        29.94F
ALMA           PTCLDY    74  71  91 CALM      29.96F
ST SIMONS      CLOUDY    77  75  93 E16G25    29.93F
FT STEWART     MOCLDY    75  73  92 N1        29.95F
ALBANY         CLEAR     78  71  79 NE7       29.97F
HUNTER AFB     PTCLDY    78  75  91 E7        29.95F
MOODY AFB      CLEAR     74  71  88 E5        29.93F
BRUNSWICK      CLOUDY    79  77  94 NE8       29.94F


CITY           SKY/WX    TMP DP  RH WIND       PRES   REMARKS
BAINBRIDGE*    CLEAR     77  70  78 CALM      29.93F
MOULTRIE*      CLEAR     77  70  78 E5        29.96S
VIDALIA*       CLEAR     77  75  94 E5        29.99S
WAYCROSS*        N/A     78  76  92 E8        29.94F
DOUGLAS*       CLEAR     75  72  88 NE6       29.97F
$$




USA.gov is the U.S. government's official web portal to all federal, state and local government web resources and services.